EHI
14 15 27 47 48 23 4 0 0 0 0 0 0 0 0 0 0 0 1 3 4 3 3 3 4 4 3 3 2 1 0 0 1 1 1 0 1 2 3 2 1 1 1 1 2 3 5 6 5
14 24 39 48 35 13 2 0 0 0 0 0 0 0 0 0 0 0 2 3 4 4 3 4 5 4 3 2 1 0 0 0 0 0 0 0 0 1 2 2 1 0 0 0 1 3 4 5 5
20 34 47 39 19 4 0 0 0 0 0 0 0 0 0 0 0 0 1 3 5 4 4 6 6 4 2 1 0 0 0 0 0 0 0 0 0 0 1 1 0 0 0 0 1 3 4 4 4
30 39 39 25 9 1 0 0 0 0 0 0 1 1 1 0 0 0 1 3 4 4 5 7 6 4 1 0 0 0 0 0 0 0 0 0 0 0 0 0 0 0 0 1 2 3 3 3 2
37 35 27 13 3 0 0 0 0 0 0 1 1 2 2 1 1 1 1 2 3 4 5 5 5 3 1 0 1 1 1 0 0 0 0 0 0 0 0 0 0 0 0 2 2 2 1 1 1
34 26 15 6 1 0 0 0 0 0 0 0 2 4 4 3 2 1 0 1 3 4 4 5 5 3 1 0 0 1 1 0 0 0 0 0 1 0 0 0 0 0 0 1 2 1 0 0 0
23 15 6 2 0 0 0 0 0 0 0 0 2 6 9 6 2 0 0 1 2 4 5 5 5 4 1 0 0 1 1 0 0 0 0 0 0 0 0 0 1 1 1 1 1 1 0 0 0
9 5 1 0 0 0 0 0 0 0 0 0 3 8 11 8 2 0 1 1 3 3 4 5 6 4 1 1 2 2 1 0 0 1 1 1 1 1 0 0 1 2 2 2 1 0 0 0 0
1 0 0 0 0 0 0 0 0 0 1 2 5 10 12 8 3 1 2 3 3 3 3 4 5 3 2 2 5 5 3 2 2 3 4 4 3 2 1 1 2 3 3 2 1 0 0 0 0
0 0 0 0 0 0 0 0 0 0 3 6 9 11 11 8 5 4 4 4 3 3 3 3 4 4 4 5 7 7 6 6 5 4 4 3 3 2 1 1 3 3 3 3 1 1 0 0 0
0 0 0 0 0 0 0 0 0 0 3 8 11 10 8 7 6 6 7 6 5 5 4 3 4 6 7 8 7 7 8 9 7 6 4 2 1 2 2 2 3 3 3 3 3 2 2 2 1
0 0 0 0 0 0 0 0 0 0 2 7 10 8 5 5 6 8 10 10 10 9 8 6 7 9 11 11 9 7 8 7 6 7 5 2 0 1 2 3 3 2 3 3 3 3 3 3 2
0 0 0 0 0 0 0 0 0 1 3 6 8 5 4 4 7 11 13 14 15 16 14 12 13 14 15 14 11 8 7 6 5 6 5 2 1 1 2 2 2 2 2 4 4 3 3 3 3
0 0 0 0 0 0 0 0 0 2 5 6 6 4 3 5 9 14 18 19 20 21 21 18 16 17 15 12 10 8 7 7 6 7 6 4 3 3 4 3 2 3 4 5 4 3 3 3 3
0 0 0 0 0 0 0 0 1 3 5 6 5 4 3 5 9 15 20 24 25 28 28 23 16 15 14 10 8 7 7 9 9 10 10 7 5 5 4 3 3 4 5 6 5 3 3 2 2
0 0 0 0 0 0 0 1 2 4 6 5 4 5 6 7 10 14 20 27 33 37 37 28 19 18 16 12 9 7 7 9 11 13 14 11 7 5 5 4 4 4 6 6 5 3 4 4 3
0 0 0 0 0 0 0 1 4 5 6 7 7 9 12 13 13 16 22 31 40 46 44 34 26 24 19 14 12 10 8 8 9 11 15 14 9 6 5 6 7 6 6 7 6 5 7 7 6
0 0 0 0 0 0 0 1 4 7 9 12 14 18 21 21 20 22 27 36 45 51 49 41 34 30 24 18 16 14 10 7 7 10 16 18 13 9 7 9 11 10 9 9 8 8 10 8 7
0 0 0 0 0 0 0 1 4 9 12 15 20 25 29 30 32 36 37 41 50 57 56 49 41 36 29 23 19 17 14 9 8 13 21 23 17 13 11 12 14 14 12 10 8 8 9 8 6
0 0 0 0 0 0 0 0 3 8 12 15 21 28 33 37 46 54 52 49 58 67 65 57 49 44 35 26 19 18 17 14 13 19 27 28 21 15 14 14 13 14 15 13 9 8 8 7 7
0 0 0 0 0 0 0 0 1 5 10 15 19 27 35 42 54 63 62 60 66 73 70 63 60 55 43 32 22 19 22 23 25 30 34 32 25 19 17 15 13 13 17 17 13 10 8 8 9
0 0 0 0 0 0 0 0 0 2 7 12 17 25 34 43 54 63 65 64 67 71 70 68 68 63 52 40 30 25 26 29 35 40 39 34 28 23 21 18 14 14 16 18 17 14 12 11 11
0 0 0 1 1 1 0 0 0 1 4 8 12 21 32 40 49 59 65 66 66 67 68 71 72 67 58 46 36 30 27 28 35 40 39 35 30 26 25 23 19 15 15 15 17 18 17 16 16
0 0 1 2 2 1 0 0 1 2 4 5 8 15 27 36 44 56 66 69 68 66 67 73 75 69 60 50 41 35 29 30 35 38 37 33 31 30 31 30 26 21 18 16 18 22 24 24 24
0 0 1 1 1 0 0 1 4 7 9 10 11 14 23 33 43 54 65 71 71 68 70 76 77 72 64 55 48 42 36 34 37 39 37 32 31 33 39 41 39 34 28 25 26 29 30 30 29
0 0 0 0 0 0 1 4 9 13 15 17 17 17 21 30 39 49 61 68 69 70 74 79 80 75 68 59 52 48 44 37 36 38 36 32 28 33 45 53 51 45 38 35 35 34 33 33 33
0 0 0 0 0 0 2 7 12 16 17 18 18 18 20 25 33 42 54 62 64 68 74 79 82 79 72 65 58 53 49 43 37 36 35 32 28 33 48 58 56 50 42 39 39 37 35 37 38
0 0 0 0 0 0 2 6 12 16 17 15 14 16 19 23 29 37 45 52 56 61 68 76 82 80 75 71 65 59 55 50 43 39 37 35 32 37 48 56 54 50 46 42 38 36 36 39 42
0 0 0 0 0 0 1 6 12 15 14 12 13 16 19 22 27 34 40 45 50 54 61 72 80 80 76 75 72 69 66 62 55 48 44 43 43 46 50 53 51 51 51 48 40 35 35 38 40
0 0 0 0 0 0 1 6 12 13 11 11 13 17 19 21 26 34 39 43 47 52 60 70 79 80 77 76 77 77 76 72 65 56 51 50 52 53 53 50 50 52 53 50 43 36 34 36 36
Wind_Speed
11 12 10 6 5 1 11 14 14 14 14 13 13 14 17 15 11 10 8 11 13 12 11 12 12 12 12 12 12 12 13 13 14 14 15 15 16 16 16 16 15 16 16 16 16 15 15 14 13
11 13 9 6 3 6 12 13 13 13 11 11 14 16 17 16 14 12 10 11 13 12 11 11 12 12 13 12 12 12 13 14 14 14 14 15 15 15 16 16 15 15 16 16 15 15 14 13 13
12 15 7 4 5 10 13 12 11 11 10 12 14 16 14 12 12 10 10 12 13 13 12 12 12 12 12 12 11 12 13 14 14 14 14 14 14 15 15 15 15 15 15 15 15 14 13 13 12
8 9 5 1 9 13 12 11 10 11 11 12 13 13 13 12 11 12 11 12 14 14 13 12 12 12 12 11 11 11 12 14 14 13 13 14 14 14 14 14 14 14 14 14 14 13 13 12 10
9 6 1 4 10 12 11 10 11 12 13 15 16 15 14 14 14 14 11 12 13 14 13 13 12 12 12 11 11 10 12 13 14 13 13 13 13 14 14 13 13 13 13 13 13 12 11 10 9
7 3 2 6 11 11 11 11 12 13 13 13 14 16 13 12 11 12 11 11 13 14 13 12 13 13 12 11 11 11 13 13 13 13 13 13 13 13 13 13 13 12 13 12 12 11 10 9 8
9 3 3 6 9 11 11 11 11 12 12 11 12 14 12 11 10 11 11 11 12 13 13 11 11 11 12 12 12 12 13 12 12 13 13 13 12 12 12 12 12 12 12 11 11 10 10 8 7
7 3 5 6 9 11 11 12 12 12 10 8 9 11 12 12 11 11 11 11 10 10 10 10 11 11 10 10 11 12 12 12 12 12 12 12 13 12 12 11 12 12 11 11 10 9 8 7 7
6 2 4 7 9 9 10 10 10 9 10 11 13 15 17 15 13 11 11 10 9 8 7 8 10 10 11 11 12 11 11 11 11 10 11 9 7 8 9 11 12 12 11 11 10 9 8 7 7
2 2 5 8 8 8 8 8 7 9 10 13 15 16 17 14 12 11 11 10 10 8 6 5 7 8 8 9 9 6 7 7 6 6 7 5 4 5 8 11 13 12 11 10 10 9 9 7 4
2 4 4 7 8 7 6 6 6 8 9 12 15 16 15 13 12 11 11 10 10 9 6 6 5 6 6 6 7 4 4 5 5 6 6 4 4 5 6 5 7 7 9 6 7 7 5 5 3
2 2 3 5 5 5 5 6 8 9 11 13 15 15 14 12 11 11 11 10 9 9 7 6 6 5 4 4 4 5 4 4 4 5 5 5 3 3 4 3 5 5 4 4 4 3 4 3 3
3 2 2 2 3 5 5 6 8 10 12 14 15 15 13 11 10 10 10 10 10 9 8 7 7 5 4 3 1 4 4 4 5 5 4 4 4 4 5 3 3 4 4 4 3 3 3 3 3
4 4 2 2 2 4 4 6 5 10 12 13 13 13 13 12 12 11 11 10 10 9 8 8 7 6 4 3 1 2 4 4 4 4 5 4 3 4 4 4 3 3 3 4 3 3 3 3 3
7 7 6 5 5 4 3 4 4 9 11 11 12 12 12 12 12 11 11 11 10 9 8 8 8 7 5 4 3 3 3 4 4 4 5 4 4 4 3 3 3 2 3 3 2 2 2 3 3
11 11 7 6 6 5 5 5 8 11 12 11 11 12 12 11 11 11 12 10 10 9 8 7 7 8 6 4 3 2 2 4 4 4 5 5 4 4 3 3 3 3 2 3 3 2 2 2 2
13 10 8 6 7 6 6 6 11 13 13 12 12 12 13 12 11 11 12 11 10 9 8 6 5 8 7 5 3 2 2 2 3 3 4 5 5 5 4 3 3 3 2 2 4 3 2 2 2
10 8 7 6 7 6 5 5 11 12 14 13 13 13 13 13 12 12 12 12 11 10 9 8 6 6 6 5 3 2 3 3 2 3 3 5 4 5 4 3 4 3 2 2 2 1 2 1 2
13 11 9 9 8 7 6 5 9 10 10 12 13 13 13 14 14 13 12 13 12 11 9 8 7 7 5 4 4 4 3 3 3 3 5 5 5 5 4 3 4 3 2 3 3 2 3 2 2
15 12 11 10 7 7 6 7 7 10 11 11 13 13 13 14 15 14 13 13 13 11 10 9 8 8 6 4 3 3 3 3 3 2 4 5 4 4 5 4 4 4 3 3 3 2 2 2 3
14 12 12 10 9 9 9 8 6 7 7 9 11 13 14 15 16 15 14 13 13 13 12 10 9 9 8 6 5 4 3 2 3 3 4 4 5 5 3 4 4 3 4 4 4 3 3 2 2
12 11 12 12 10 8 9 7 6 7 8 10 11 11 13 14 15 15 14 13 13 13 13 10 9 9 8 6 6 6 5 4 4 3 4 4 4 5 5 4 4 3 3 4 5 4 3 3 2
13 11 11 12 12 11 10 9 6 7 8 10 11 11 13 14 16 17 16 14 14 14 13 11 10 8 8 6 5 5 4 4 3 4 4 4 4 5 5 5 4 4 3 3 3 3 3 2 2
12 12 13 13 11 12 11 10 7 5 7 9 11 11 11 12 14 14 15 13 12 13 13 12 11 9 8 7 6 5 4 3 4 4 5 5 4 4 5 5 4 4 3 3 3 3 4 3 2
12 11 9 10 9 9 9 9 5 3 5 6 7 7 10 10 11 11 13 14 12 13 13 13 12 10 10 9 7 6 5 4 4 4 5 5 4 4 5 5 4 4 3 3 3 3 3 3 3
12 13 11 11 9 8 6 6 3 1 1 3 3 4 5 7 9 11 12 12 12 13 13 13 13 11 11 10 8 6 6 5 4 5 4 4 4 5 5 5 5 5 4 4 3 3 4 4 4
14 13 14 13 14 11 7 5 3 2 2 3 2 5 4 3 5 7 9 10 11 11 11 12 12 12 11 11 9 7 7 6 5 5 5 4 3 3 5 5 5 5 5 4 4 3 4 3 4
15 13 9 11 11 13 10 8 4 5 4 4 3 2 4 3 5 6 7 7 9 10 9 11 12 11 10 10 9 9 8 7 5 4 5 4 3 3 3 4 5 5 4 5 4 4 4 4 4
13 13 11 10 11 11 10 4 1 4 5 5 4 3 2 2 3 4 5 7 9 10 10 10 11 11 10 10 9 7 8 7 6 4 4 4 3 3 3 3 4 5 5 5 4 5 4 5 4
13 12 12 11 10 11 11 4 3 4 3 3 3 4 1 2 3 3 4 4 4 6 9 9 10 11 10 8 8 7 6 6 6 6 4 4 4 4 4 4 5 5 5 4 5 6 5 5 5
Wind_Direction
186 203 209 229 245 229 60 58 59 60 61 58 59 66 61 51 60 85 96 91 95 95 94 91 88 92 93 91 93 95 100 106 112 113 113 114 115 117 118 119 119 122 122 123 123 121 120 118 117
205 213 217 241 257 63 64 62 64 65 72 73 68 70 71 64 74 91 97 100 101 100 96 93 95 95 95 95 97 100 102 106 111 112 113 117 118 119 120 121 121 123 123 124 124 123 122 121 120
236 240 246 240 50 59 63 66 74 78 75 79 76 65 60 76 82 97 109 112 105 100 96 98 100 99 98 100 102 103 104 109 112 113 114 116 118 120 122 123 124 124 124 124 125 125 125 124 123
241 237 241 346 58 64 69 75 78 80 75 72 77 76 69 77 95 107 116 113 107 105 103 103 101 101 102 102 103 106 110 113 115 117 119 120 121 122 124 126 125 126 126 126 127 128 128 127 128
238 259 237 66 68 71 72 77 81 78 76 76 81 88 84 87 102 114 116 112 112 110 109 110 106 106 106 105 107 111 116 117 119 121 123 124 126 128 128 128 128 130 131 132 131 131 133 134 138
250 237 347 60 75 75 76 75 79 81 86 93 99 99 95 105 111 117 116 114 113 111 110 116 114 114 114 114 113 113 118 119 124 126 128 128 130 133 133 133 133 133 135 136 136 137 139 141 145
260 296 50 66 81 78 71 71 72 85 82 89 101 103 111 117 117 118 114 109 108 112 116 123 124 121 123 123 121 117 118 121 128 132 132 134 136 138 140 140 139 138 139 140 140 144 145 145 153
278 331 16 62 75 80 79 75 71 78 80 90 104 110 125 128 127 121 114 106 105 111 117 127 132 133 137 132 131 130 130 131 129 131 137 142 144 146 147 147 145 144 146 148 148 150 154 160 170
271 357 18 53 68 84 87 87 91 99 97 76 74 103 123 131 132 127 119 113 110 109 117 128 128 141 144 139 138 143 141 141 140 139 143 147 154 153 156 148 150 152 155 157 159 162 169 177 189
232 76 48 66 74 82 92 98 109 109 100 95 95 108 124 136 138 135 130 129 126 125 127 118 127 140 142 134 137 150 149 147 157 149 154 161 151 153 149 147 154 156 160 164 169 175 184 193 193
354 48 50 68 80 86 92 102 101 102 107 116 123 130 137 143 145 143 137 135 131 132 134 129 123 122 127 127 144 151 142 147 154 147 152 145 142 144 139 152 155 160 166 173 170 184 199 197 187
332 40 40 67 81 92 93 92 86 84 97 116 127 135 140 150 151 145 139 136 135 136 137 133 117 107 100 117 133 142 139 148 143 147 161 148 150 140 140 148 154 164 171 170 170 187 199 182 177
313 342 41 81 108 97 104 99 105 103 109 119 129 139 146 150 147 140 134 136 138 136 133 122 110 102 97 90 137 140 138 145 141 147 157 153 154 146 143 152 158 174 163 165 185 186 185 170 194
292 293 265 227 169 143 125 105 108 116 122 130 139 146 153 154 152 143 140 142 138 136 136 130 127 128 130 135 174 136 140 134 132 142 151 158 148 140 148 157 161 172 160 171 181 177 171 180 197
270 260 242 231 224 163 136 109 126 135 138 147 150 152 153 154 152 148 148 149 143 140 138 139 145 143 150 162 180 161 154 141 143 142 144 152 153 143 152 151 157 170 167 159 171 179 173 192 201
267 258 245 237 238 182 196 157 169 163 158 163 163 156 155 156 157 152 150 150 145 145 142 156 159 148 155 170 179 174 152 139 140 141 143 153 155 151 158 158 165 169 167 163 175 186 188 198 210
257 253 251 221 219 214 215 171 172 169 165 173 167 162 161 163 163 154 155 152 146 144 147 156 155 148 160 170 176 177 141 133 144 141 146 157 165 162 167 168 162 172 177 183 196 178 179 193 210
272 275 274 254 222 224 228 185 171 176 175 171 168 169 168 170 169 161 161 153 149 148 152 157 158 148 160 166 167 173 155 156 161 150 149 156 171 173 174 171 173 183 175 183 203 160 173 194 221
271 275 278 272 251 244 244 226 190 186 185 172 171 172 174 173 168 164 165 160 158 156 158 163 167 157 166 172 172 175 176 178 172 171 161 164 181 177 178 171 167 181 184 185 185 175 201 203 210
264 269 271 271 265 255 249 252 216 192 196 182 176 174 174 177 170 166 170 169 165 161 162 167 171 167 175 174 172 178 172 182 175 171 154 169 183 177 188 176 185 184 183 184 189 187 201 221 204
260 265 274 282 281 269 259 251 245 216 198 191 184 178 173 180 172 170 174 174 170 167 170 175 172 169 181 174 176 178 167 186 172 170 167 182 182 181 191 175 202 183 184 180 191 192 197 217 225
258 262 267 278 275 274 267 264 238 222 198 206 192 188 177 174 167 171 176 177 175 172 173 169 166 167 173 176 181 185 182 188 178 176 172 179 188 189 185 183 195 197 206 174 194 188 202 209 223
260 268 273 271 271 272 267 273 247 213 201 201 194 195 178 172 172 175 179 178 178 173 171 167 161 165 168 180 187 193 195 186 173 171 165 180 194 198 191 184 187 200 208 192 200 177 197 208 217
262 267 267 263 260 258 256 259 256 235 198 205 197 186 174 175 174 173 175 170 175 173 169 166 163 168 170 180 184 186 197 185 175 173 170 187 192 200 198 189 190 202 208 202 197 195 203 216 229
242 250 257 252 245 253 262 255 237 221 206 201 188 178 168 171 170 167 171 170 173 173 170 166 165 171 175 181 188 184 193 193 187 185 188 192 192 196 195 194 186 199 200 203 198 199 214 211 222
242 242 246 261 263 261 247 250 262 118 65 91 122 126 141 162 171 171 175 172 174 176 172 168 168 173 178 184 189 187 190 197 199 204 202 198 198 191 182 186 185 192 197 208 199 208 209 208 217
245 245 254 262 265 267 250 236 227 182 127 92 116 122 133 156 160 163 169 168 171 179 175 169 167 174 181 185 184 187 191 198 198 198 206 207 204 195 175 185 191 196 202 211 203 213 215 204 211
241 251 257 254 264 266 249 236 218 189 175 156 153 139 140 154 177 164 163 170 169 180 180 174 168 173 179 183 187 189 194 197 198 203 194 205 205 200 171 193 200 201 204 210 211 216 214 211 213
231 241 257 269 267 266 266 261 184 155 159 171 161 147 148 188 150 143 156 163 171 175 180 182 169 171 180 185 186 189 185 193 195 201 202 199 202 199 191 206 218 209 206 209 212 221 211 215 217
246 242 242 251 261 271 274 244 147 135 155 147 145 130 119 147 114 125 124 133 156 171 171 170 170 174 178 181 182 188 184 185 191 198 201 199 201 200 202 212 223 220 212 208 217 228 220 215 214